This demonstration page uses our WeatherBlox Daily Observations layout. Learn more.

Hourly Observations for June 3, 2017

Temp ( °F °C ) Dew Point ( °F °C ) Humidity (%) Winds ( mph kmh ) Pressure ( in mb ) Visibility ( mi km ) Precip ( " mm )
12:54 am 00:54 Clear 68 20 60 15.6 76 76 SSW 6 9 29.97 1015 10 16.0934 0 0
1:54 am 01:54 Clear 65 18.3 59 15 81 81 S 8 13 29.96 1015 10 16.0934 0 0
2:54 am 02:54 Clear 63 17.2 58 14.4 84 84 S 7 11 29.96 1015 10 16.0934 0 0
3:54 am 03:54 Clear 64 17.8 58 14.4 81 81 Calm 29.96 1015 10 16.0934 0 0
4:54 am 04:54 Clear 65 18.3 59 15 81 81 Calm 29.97 1015 10 16.0934 0 0
5:54 am 05:54 Clear 61 16.1 58 14.4 90 90 SSE 3 6 29.98 1015 10 16.0934 0 0
6:54 am 06:54 Sunny 65 18.3 60 15.6 84 84 Calm 29.99 1016 10 16.0934 0 0
7:54 am 07:54 Sunny 68 20 62 16.7 81 81 S 3 6 29.99 1016 10 16.0934 0 0
8:54 am 08:54 Sunny 74 23.3 63 17.2 69 69 SW 5 7 30 1016 10 16.0934 0 0
9:54 am 09:54 Sunny 79 26.1 63 17.2 58 58 WSW 8 13 29.99 1016 10 16.0934 0 0
10:54 am 10:54 Sunny 82 27.8 63 17.2 53 53 SSW 13 20 29.98 1015 10 16.0934 0 0
11:54 am 11:54 Sunny 83 28.3 62 16.7 49 49 SW 8 13 29.98 1015 10 16.0934 0 0
12:54 pm 12:54 Partly Cloudy 85 29.4 61 16.1 45 45 SSW 8 13 29.98 1015 10 16.0934 0 0
1:54 pm 13:54 Mostly Sunny 86 30 61 16.1 43 43 S 9 15 29.96 1015 10 16.0934 0 0
2:54 pm 14:54 Mostly Sunny 87 30.6 61 16.1 42 42 SSW 6 9 29.94 1014 10 16.0934 0 0
3:54 pm 15:54 Sunny 87 30.6 61 16.1 42 42 SSE 8 13 29.92 1013 10 16.0934 0 0
4:54 pm 16:54 Sunny 84 28.9 59 15 43 43 VRB 7 11 29.91 1013 10 16.0934 0 0
5:54 pm 17:54 Sunny 87 30.6 57 13.9 36 36 Calm 29.89 1012 10 16.0934 0 0
6:54 pm 18:54 Sunny 86 30 60 15.6 42 42 S 6 9 29.89 1012 10 16.0934 0 0
7:54 pm 19:54 Sunny 82 27.8 62 16.7 51 51 S 10 17 29.91 1013 10 16.0934 0 0
8:54 pm 20:54 Sunny 75 23.9 62 16.7 64 64 S 8 13 29.92 1013 10 16.0934 0 0
9:54 pm 21:54 Clear 74 23.3 61 16.1 64 64 SSW 3 6 29.93 1013 10 16.0934 0 0
10:54 pm 22:54 Clear 74 23.3 61 16.1 64 64 Calm 29.93 1014 10 16.0934 0 0
11:54 pm 23:54 Clear 73 22.8 62 16.7 69 69 Calm 29.93 1014 10 16.0934 0 0

Powered by AerisWeather